Lapse_Rate
5.6 5.8 5.7 5.7 5.9 5.7 5.6 6.0 5.4 5.4 5.2 5.6 5.4 5.3 5.3 5.6 5.9 6.1 6.1 6.2 6.3 6.1 5.7 5.5 5.6 5.4 5.8 6.1 6.3 6.6 6.7 6.5 6.6 6.8 6.7 6.9 6.9 6.9 6.8 6.7 6.4 6.4 6.7 6.7
6.3 6.4 6.5 6.2 6.1 6.3 6.4 6.4 5.8 6.1 5.3 6.6 7.0 5.9 5.7 6.1 6.3 6.6 6.6 6.5 6.7 6.3 6.3 5.9 5.9 6.0 5.8 6.0 6.5 6.8 7.1 7.0 6.7 6.5 7.1 6.9 7.0 6.9 6.7 6.9 6.2 6.1 6.2 6.5
6.3 6.7 6.6 6.2 6.7 6.9 6.8 6.8 6.9 6.3 7.0 6.5 6.6 6.6 6.5 6.8 7.0 7.2 7.0 6.4 6.7 6.5 6.3 6.0 5.6 5.4 5.9 6.1 6.2 6.4 6.8 7.3 7.5 7.1 7.1 6.9 6.4 5.7 6.7 6.5 6.4 6.4 6.3 6.5
6.5 6.5 6.5 6.9 6.9 6.9 6.8 6.8 7.0 7.0 6.9 6.6 6.6 6.9 6.9 7.2 7.1 7.0 7.2 6.8 7.0 6.9 6.6 6.3 6.0 5.8 5.5 5.9 6.3 6.3 6.5 6.9 6.6 6.5 6.5 6.3 6.6 6.1 6.1 6.0 5.9 6.4 6.7 6.2
6.7 6.8 6.9 6.9 7.3 7.1 7.0 6.9 7.1 7.0 6.9 6.6 6.7 6.9 7.2 7.1 7.0 7.1 7.0 7.0 7.1 7.1 7.3 7.5 6.8 6.2 6.0 5.8 6.0 6.1 6.2 6.5 6.1 6.3 6.3 6.3 6.5 6.7 6.8 6.4 6.3 7.0 6.9 6.1
6.9 7.3 7.3 7.5 7.7 7.8 7.8 7.1 7.7 7.5 7.5 7.4 7.2 7.0 7.3 7.8 7.7 7.2 6.8 6.4 6.4 6.6 6.6 6.6 7.0 6.6 6.4 6.5 6.3 6.0 6.1 6.3 5.9 6.2 6.2 6.5 6.6 7.0 6.9 6.5 6.3 6.2 5.9 5.8
7.4 7.5 7.4 7.8 7.9 7.9 7.8 7.8 7.5 7.6 7.6 7.3 7.2 7.1 6.8 7.4 7.4 7.2 7.1 7.1 6.9 6.5 6.5 6.5 6.5 6.6 6.4 6.5 6.7 6.4 6.3 6.4 6.4 6.1 6.1 6.8 6.7 6.7 6.8 6.3 5.9 6.1 5.8 5.7
7.5 7.4 7.6 8.0 8.0 7.9 7.7 7.7 7.7 7.8 7.8 7.6 7.6 7.5 7.3 7.4 7.3 7.3 7.4 7.3 7.2 6.6 6.6 6.6 6.9 6.6 6.6 6.6 6.6 6.5 6.2 6.4 6.2 6.8 6.5 6.0 6.2 6.2 6.4 6.4 6.2 6.1 6.3 5.4
8.0 8.1 8.0 8.0 7.9 7.8 7.9 8.0 8.0 8.0 7.9 7.8 7.8 7.7 7.7 7.9 7.8 7.8 7.7 7.6 7.6 7.1 7.0 7.0 7.2 6.9 6.7 7.0 6.7 6.0 6.0 6.2 6.7 6.7 6.9 6.7 6.6 6.4 6.3 6.3 6.6 6.2 5.7 5.5
7.7 8.2 8.1 8.1 8.0 7.9 7.8 7.8 7.9 7.8 7.8 7.7 7.6 7.6 7.6 7.7 7.8 7.8 7.7 7.7 7.6 7.7 8.1 8.2 8.1 7.8 7.6 7.6 7.0 6.4 6.6 6.3 6.4 6.3 6.4 6.5 6.2 6.1 6.1 6.0 6.0 5.9 5.5 5.1
8.0 8.1 8.2 8.1 8.0 7.9 8.0 8.0 7.9 7.9 7.8 7.7 7.6 7.7 7.8 7.9 7.9 7.8 7.5 7.4 7.3 7.2 7.4 7.6 7.4 7.5 7.6 7.6 7.3 6.8 6.5 6.4 6.1 6.1 6.2 6.4 6.1 6.1 6.3 6.1 5.9 5.9 5.8 5.9
7.8 7.8 7.8 7.9 8.0 8.0 8.1 8.1 8.0 8.1 8.1 8.0 7.9 7.8 8.1 8.1 8.0 7.4 7.0 6.9 6.8 6.6 6.8 6.7 6.8 6.8 7.7 7.3 7.1 6.6 6.6 6.6 6.5 6.6 6.9 6.8 6.7 6.8 6.7 6.6 6.5 6.3 6.3 6.2
7.9 8.0 8.1 8.0 8.0 7.9 8.0 8.0 7.9 7.8 7.6 7.5 7.6 7.3 7.6 7.6 7.4 7.0 6.5 6.7 6.5 6.4 6.3 6.8 6.7 7.2 7.2 7.1 6.8 6.7 6.3 6.7 6.4 6.8 7.0 6.8 7.0 6.9 6.5 6.7 6.7 6.6 6.5 6.8
8.2 8.2 8.2 8.0 8.0 7.9 7.9 7.8 7.6 7.5 7.4 7.1 7.2 7.3 7.2 7.2 6.9 6.3 6.4 6.8 6.7 6.3 6.4 6.6 7.1 7.0 7.0 6.6 7.0 6.6 6.5 6.4 6.1 6.7 6.9 7.1 7.0 6.9 6.8 7.2 7.6 7.6 7.5 7.5
8.0 8.1 8.0 8.0 7.8 7.7 7.7 7.7 7.7 7.6 7.5 7.3 7.3 7.3 7.2 7.0 6.6 6.5 6.4 6.8 6.6 6.3 6.0 6.6 6.7 6.7 6.7 6.5 6.4 6.6 6.2 6.0 6.4 6.6 6.9 6.9 6.8 7.1 7.5 7.5 7.6 7.7 7.9 8.0
8.1 8.0 7.8 7.7 7.5 7.5 7.5 7.5 7.5 7.7 7.7 7.3 7.2 7.1 7.0 6.8 6.6 6.4 6.2 6.4 6.5 6.6 6.6 6.4 6.4 6.2 6.4 6.4 6.1 6.1 6.1 6.0 6.4 6.6 6.8 7.0 7.3 7.5 7.6 7.7 7.9 7.9 7.8 7.8
8.1 8.0 7.9 7.8 7.6 7.5 7.5 7.4 7.6 7.9 8.0 7.7 7.3 7.0 7.0 6.6 6.4 6.5 5.9 6.0 6.4 6.6 6.2 6.3 6.3 6.1 5.9 5.9 6.0 6.1 6.1 6.5 6.4 6.8 7.3 7.5 7.7 7.7 7.6 7.6 7.6 7.5 7.5 7.5
8.2 8.1 8.0 7.9 7.8 7.7 7.6 7.5 7.6 7.8 7.9 7.6 7.2 7.2 7.0 6.8 6.6 6.5 5.8 5.8 5.9 6.0 5.9 5.6 5.6 5.5 5.5 6.0 6.3 6.5 6.5 6.6 7.1 7.5 7.4 7.4 7.5 7.6 7.6 7.6 7.7 7.7 7.7 7.7
8.2 8.1 8.0 8.0 7.9 7.7 7.6 7.7 7.7 7.7 7.6 7.4 7.3 7.5 7.1 7.0 6.7 6.4 6.0 6.1 6.1 6.0 6.5 6.5 6.2 6.2 6.3 6.5 6.5 6.5 6.8 7.2 7.5 7.4 7.4 7.5 7.6 7.7 7.7 7.7 7.6 7.6 7.6 7.6
8.1 8.1 8.0 8.0 8.0 7.8 7.5 7.5 7.6 7.5 7.6 7.4 7.3 7.3 7.1 6.8 6.5 6.2 6.1 6.4 6.4 6.4 6.4 6.5 6.5 6.5 6.6 6.7 6.8 7.0 7.2 7.4 7.6 7.7 7.7 7.6 7.6 7.6 7.6 7.7 7.7 7.6 7.6 7.5
8.0 7.9 7.9 7.9 7.9 7.9 7.7 7.5 7.5 7.5 7.6 7.7 7.6 7.4 7.0 7.0 6.7 6.6 6.5 6.7 6.6 6.6 6.7 6.7 6.8 6.9 7.0 7.1 7.2 7.3 7.4 7.6 7.7 7.6 7.6 7.5 7.6 7.5 7.4 7.4 7.4 7.4 7.3 7.2
7.8 7.8 7.8 7.8 7.8 7.8 7.7 7.5 7.5 7.5 7.5 7.6 7.5 7.3 6.9 6.8 6.7 6.6 6.4 6.6 6.7 6.6 6.7 6.8 6.9 7.0 7.1 7.2 7.1 7.2 7.2 7.2 7.3 7.4 7.4 7.4 7.4 7.4 7.4 7.4 7.3 7.3 7.2 7.1
7.4 7.6 7.7 7.7 7.7 7.6 7.6 7.5 7.4 7.4 7.4 7.3 7.5 7.3 7.2 6.8 6.7 6.5 6.4 6.5 6.6 6.7 6.8 6.9 6.8 6.8 7.0 7.0 7.1 7.1 7.2 7.2 7.2 7.3 7.3 7.4 7.5 7.5 7.4 7.3 7.2 7.1 7.2 7.3
7.4 7.6 7.7 7.7 7.6 7.6 7.6 7.5 7.4 7.3 7.3 7.3 7.2 7.3 7.1 7.1 6.7 6.5 6.5 6.4 6.5 6.8 6.9 6.9 6.8 6.8 7.0 7.0 7.1 7.1 7.1 7.1 7.2 7.2 7.2 7.2 7.2 7.2 7.2 7.2 7.2 7.2 7.4 7.2
7.6 7.6 7.7 7.7 7.7 7.7 7.6 7.5 7.5 7.4 7.3 7.3 7.2 7.1 7.1 7.0 6.9 6.5 6.4 6.4 6.5 6.5 6.6 6.8 6.9 6.8 6.9 6.9 7.0 7.1 7.1 7.2 7.2 7.2 7.2 7.1 7.1 7.2 7.2 7.2 7.3 7.2 7.1 6.8
7.5 7.6 7.7 7.8 7.8 7.8 7.7 7.7 7.6 7.5 7.4 7.4 7.2 7.1 7.0 7.0 7.0 6.8 6.5 6.5 6.5 6.6 6.6 6.7 6.8 6.9 6.9 7.0 7.0 7.1 7.1 7.2 7.2 7.2 7.2 7.1 7.0 7.2 7.3 7.2 7.0 6.9 6.9 7.0
7.6 7.7 7.8 7.9 7.7 7.6 7.5 7.6 7.6 7.5 7.4 7.5 7.4 7.3 7.1 7.0 7.0 6.9 6.9 6.7 6.6 6.5 6.4 6.4 6.6 6.8 6.7 6.8 6.8 7.0 7.1 7.2 7.3 7.2 7.0 7.0 7.1 7.2 7.0 6.8 6.9 6.9 7.0 7.0
Wind_Speed
9 8 7 6 7 7 9 8 7 4 12 12 4 5 6 6 7 9 9 10 10 12 13 14 14 14 14 14 13 10 10 10 8 7 7 3 4 6 5 10 13 14 17 18
5 7 10 13 13 13 14 13 14 14 18 10 2 2 6 6 8 11 10 8 11 14 17 17 16 15 15 15 13 10 10 8 6 6 5 2 3 2 3 3 3 7 11 13
3 4 3 6 10 14 9 9 11 13 16 7 7 8 7 5 9 11 10 11 13 15 16 18 17 16 16 16 16 11 8 4 4 5 6 3 2 5 5 5 5 6 4 4
3 2 4 3 2 4 7 11 11 15 14 5 5 7 5 9 9 8 9 12 14 14 14 16 15 16 16 16 15 11 5 3 3 4 3 2 3 3 4 4 7 7 7 7
3 5 9 14 3 3 3 9 6 12 7 2 3 6 5 6 5 8 12 14 15 15 16 17 16 16 16 17 15 8 6 5 5 4 4 3 5 4 4 6 5 4 7 9
3 3 4 1 2 3 2 7 2 4 3 4 2 6 7 7 4 10 13 13 16 17 18 19 18 16 16 17 14 9 8 8 5 6 6 6 5 6 4 6 7 7 8 5
4 4 6 5 2 1 4 5 1 3 4 4 5 7 14 16 17 15 15 17 16 15 17 19 19 17 18 17 15 9 7 7 7 7 7 6 5 3 8 9 7 10 10 7
4 4 8 3 4 4 3 5 6 8 7 10 12 15 15 17 16 16 18 18 16 16 18 19 20 16 17 19 14 9 10 10 8 7 6 6 9 4 7 10 10 9 12 7
6 4 2 4 3 1 4 4 6 11 12 13 15 16 16 17 18 16 17 16 15 16 19 20 21 16 17 18 11 12 10 7 9 8 7 5 7 8 7 6 8 7 8 7
2 1 4 5 2 3 6 8 11 12 14 13 16 17 15 15 16 16 16 15 16 19 19 22 19 18 18 17 13 14 12 11 7 9 10 9 6 5 6 6 7 7 7 6
3 5 3 4 3 7 10 9 13 15 16 17 17 20 18 17 18 17 16 15 16 17 16 18 19 15 17 14 16 13 14 11 9 8 10 10 8 6 6 5 5 8 6 6
3 3 1 5 9 12 11 13 15 15 16 18 18 20 21 18 17 17 15 15 16 12 10 12 7 6 13 15 18 16 14 10 9 8 9 9 9 10 17 13 15 16 13 8
1 1 5 8 9 7 12 14 13 13 16 18 19 15 19 16 14 15 16 17 14 7 7 5 4 9 9 12 16 18 14 13 9 10 9 9 9 10 10 11 18 17 16 16
1 2 3 5 8 13 12 13 14 14 14 13 16 17 10 9 13 16 15 10 4 3 5 5 4 11 9 13 15 14 14 16 9 8 8 8 8 9 7 8 8 7 11 12
2 2 5 8 10 11 12 13 14 14 14 14 15 11 9 11 11 9 6 5 5 7 8 8 9 11 8 13 14 14 11 9 9 9 8 9 8 8 8 9 9 9 8 8
1 3 4 8 10 11 11 12 13 14 13 12 13 13 11 9 7 7 8 9 7 9 9 9 11 8 7 12 13 12 11 16 12 10 9 9 8 9 8 8 8 7 7 7
1 3 6 8 9 11 12 11 11 11 12 12 13 12 9 9 4 7 8 8 10 11 10 10 10 9 11 12 13 10 9 10 15 10 9 9 8 9 8 7 7 7 6 4
1 1 2 5 7 9 12 12 11 12 11 13 11 8 6 7 5 5 6 7 10 11 10 8 7 8 9 10 10 9 9 9 9 9 9 8 8 8 7 7 7 6 5 3
1 3 4 5 5 7 10 11 12 11 9 9 7 6 6 6 6 6 5 8 8 9 8 6 6 7 8 8 7 6 8 9 9 8 8 8 7 7 6 6 5 5 4 4
3 2 3 5 4 4 8 9 10 9 8 8 6 6 7 7 6 7 8 9 8 4 5 7 7 7 7 6 5 6 6 7 8 6 5 6 5 5 5 5 5 4 4 3
2 3 4 3 5 4 4 6 8 9 7 6 6 5 5 5 6 5 6 6 7 7 7 9 6 5 5 5 5 4 5 5 5 5 4 4 5 4 4 3 4 3 4 4
2 2 3 5 7 6 2 5 6 5 6 5 4 4 4 6 6 6 5 4 3 6 5 6 6 8 6 7 4 5 5 5 5 4 5 4 4 4 3 2 2 2 2 3
2 3 4 4 5 6 2 2 5 4 5 5 5 4 4 3 2 2 3 3 4 5 4 4 5 6 6 3 4 4 5 4 4 4 3 3 3 2 1 1 1 1 2 3
5 5 5 3 2 3 4 5 4 3 3 2 2 2 2 2 3 3 3 3 4 4 4 3 4 4 4 3 3 3 3 3 3 3 3 3 2 2 1 1 1 1 1 3
7 6 5 4 3 2 3 4 4 5 5 4 1 1 3 1 1 2 2 3 4 3 3 4 3 4 3 3 3 3 3 3 3 3 4 3 3 4 4 3 3 3 3 3
8 7 6 6 4 2 1 2 3 3 5 5 4 2 1 1 2 2 2 2 3 4 3 3 2 3 4 4 4 4 4 5 4 4 4 4 4 4 4 3 3 4 4 3
7 8 6 5 4 4 2 1 2 4 5 4 5 5 2 3 3 3 3 3 2 3 3 3 3 5 5 5 5 5 5 5 5 4 4 4 3 4 3 3 4 4 3 3
Wind_Direction
278 257 228 235 249 238 209 202 207 201 227 258 217 280 300 305 299 311 331 337 336 348 343 327 333 332 328 328 319 311 304 299 301 311 306 259 187 185 210 208 197 199 198 198
287 268 249 253 253 247 240 242 244 252 255 245 234 261 269 286 312 314 314 333 337 344 345 332 327 315 320 319 312 294 288 285 292 284 283 303 102 127 159 147 240 187 193 195
272 338 339 276 243 238 236 235 239 248 256 169 210 249 274 308 292 303 317 328 330 330 327 332 321 317 310 311 304 271 259 256 271 280 285 286 138 124 123 119 122 117 88 194
260 277 259 300 240 237 252 263 256 256 258 218 243 269 271 255 278 301 305 321 319 316 311 311 314 311 307 307 307 274 249 239 216 236 227 266 107 94 99 115 122 118 108 102
227 220 292 284 255 211 228 287 245 247 265 295 279 299 289 252 269 295 312 317 311 308 306 311 312 312 303 298 301 243 212 205 175 188 152 134 100 98 81 100 88 93 112 111
163 224 253 286 200 199 211 284 182 199 229 248 282 298 306 303 300 298 295 295 300 300 304 307 312 308 294 286 287 220 206 164 147 154 140 131 121 117 91 94 109 97 78 100
188 230 270 255 195 224 237 323 121 221 272 288 285 291 312 305 303 299 296 295 295 292 297 303 306 297 283 277 270 198 163 156 143 138 127 121 105 113 116 105 99 96 92 69
177 218 266 167 122 217 15 353 343 337 326 312 306 304 302 299 300 303 302 297 291 293 294 293 297 282 267 261 258 165 165 146 136 132 130 131 126 119 109 114 111 102 104 96
206 214 252 221 223 18 357 348 340 321 315 306 300 298 299 293 295 295 295 290 289 290 289 294 288 263 255 244 201 149 139 126 128 115 103 93 114 117 104 111 115 103 98 100
186 140 237 235 251 91 355 322 316 314 311 309 298 298 293 286 292 294 293 287 294 297 294 292 281 264 237 221 178 148 132 124 127 123 109 90 76 74 97 99 104 107 109 110
243 271 275 135 80 332 323 329 328 330 330 319 308 299 294 290 291 290 289 291 296 295 294 285 274 238 202 178 150 142 130 130 128 116 104 93 77 71 71 54 100 116 112 122
278 87 335 289 325 323 323 331 327 320 322 319 316 304 293 288 288 292 292 293 297 291 282 296 291 163 161 152 137 132 133 130 128 122 110 108 103 86 62 80 86 93 100 113
176 297 275 281 296 314 310 316 322 328 319 318 317 307 300 292 297 290 293 298 293 287 301 319 278 90 114 131 133 133 136 130 124 125 122 123 117 108 105 76 78 84 91 90
232 320 336 352 320 325 343 334 335 324 323 326 315 320 313 303 309 311 304 316 330 348 353 44 55 67 88 106 109 114 112 114 115 111 115 112 112 114 123 114 104 93 71 93
81 18 327 335 335 339 339 337 332 329 331 330 323 329 331 327 319 327 333 5 30 42 38 47 50 58 77 97 101 103 106 107 106 103 98 103 117 123 120 118 119 119 115 93
301 322 342 338 346 345 343 340 329 325 325 319 315 323 319 325 331 0 29 29 28 53 44 50 52 52 65 90 99 99 101 103 106 111 114 119 119 116 119 123 128 126 117 122
40 353 353 346 350 346 338 331 320 317 314 312 317 315 319 331 2 22 41 47 49 47 46 47 49 51 68 83 98 106 110 113 118 113 115 119 116 113 113 117 111 105 97 79
86 62 4 345 341 337 335 327 327 325 320 320 314 322 346 1 18 23 40 59 59 52 40 49 60 62 69 83 95 104 109 107 110 112 118 116 112 113 109 103 103 111 119 108
10 12 7 338 332 331 330 331 331 323 327 330 349 9 18 27 20 15 38 57 51 58 24 45 53 75 85 80 90 96 106 111 109 106 107 109 104 106 105 104 108 111 113 121
339 45 359 333 323 327 333 336 334 336 346 354 11 25 31 30 37 35 49 56 44 48 49 56 60 63 78 88 93 102 98 103 108 109 101 106 108 104 106 105 111 119 124 125
289 308 306 321 317 302 334 334 342 344 355 2 26 32 51 58 47 37 43 57 29 34 53 61 55 55 57 67 72 80 89 91 96 103 101 95 91 88 92 117 134 148 162 175
321 1 349 344 334 314 327 354 355 346 2 6 9 36 57 60 66 62 39 57 49 49 59 58 53 45 45 51 64 71 73 77 81 84 84 91 96 101 111 120 145 174 174 191
226 265 297 311 324 330 322 10 358 1 359 8 5 27 64 59 31 51 80 39 69 61 66 62 55 48 42 44 61 61 70 75 86 82 86 93 93 104 132 162 177 217 225 232
222 242 266 286 313 341 337 352 332 332 317 297 338 339 354 45 68 70 90 80 98 90 72 76 83 84 77 84 94 99 101 97 92 94 101 96 98 111 92 25 299 279 284 266
227 231 240 247 237 267 308 333 339 353 349 338 328 324 335 358 349 124 95 111 119 116 113 105 93 97 99 101 105 105 103 95 97 100 88 93 96 87 79 72 60 51 47 24
242 231 222 213 201 189 282 332 347 347 340 331 326 341 263 168 123 118 125 136 131 140 130 113 106 110 103 101 99 96 98 99 94 95 101 99 95 96 91 88 61 40 24 343
245 232 217 198 198 188 181 44 357 345 334 322 305 301 299 189 171 161 166 149 145 135 117 107 119 116 117 113 106 105 100 94 94 102 104 109 110 96 79 63 52 35 2 334